Location: Newark
(52.2167°N, 10.7833°E)
Time: 13:00:52
(UTC+00:00)

ISS - Visible Passes

Search period start: 24 September 2020 00:00
Search period end: 04 October 2020 00:00
Orbit: 419 x 420 km, 51.6° (Epoch: 24 September)

Date Brightness Start Highest point End Pass type
(mag) Time Alt. Az. Time Alt. Az. Time Alt. Az.
24 Sep -3.7 18:08:55 10° WSW 18:12:16 64° SSE 18:14:50 16° E visible
24 Sep -2.3 19:45:39 10° W 19:47:47 36° W 19:47:47 36° W visible
25 Sep -3.9 18:58:15 10° W 19:01:39 83° S 19:02:10 61° ESE visible
25 Sep -0.4 20:35:04 10° W 20:35:08 10° W 20:35:08 10° W visible
26 Sep -3.8 18:10:52 10° W 18:14:14 81° S 18:16:32 19° E visible
26 Sep -1.9 19:47:40 10° W 19:49:29 29° W 19:49:29 29° W visible
27 Sep -3.9 19:00:15 10° W 19:03:37 73° S 19:03:50 69° SSE visible
28 Sep -3.8 18:12:50 10° W 18:16:12 80° S 18:18:10 23° E visible
28 Sep -1.4 19:49:40 10° W 19:51:08 21° W 19:51:08 21° W visible
29 Sep -3.3 19:02:12 10° W 19:05:29 49° SSW 19:05:29 49° SSW visible
30 Sep -3.5 18:14:45 10° W 18:18:06 61° SSW 18:19:50 25° ESE visible
30 Sep -0.9 19:51:54 10° W 19:52:48 15° WSW 19:52:48 15° WSW visible
01 Oct -3.6 17:27:17 10° W 17:30:40 72° S 17:34:02 10° ESE visible
01 Oct -2.3 19:04:15 10° W 19:07:11 28° SSW 19:07:11 28° SSW visible
02 Oct -2.7 18:16:41 10° W 18:19:50 37° SSW 18:21:37 21° SSE visible
03 Oct -3.0 17:29:10 10° W 17:32:27 49° SSW 17:35:43 10° SE visible
03 Oct -1.3 19:06:45 10° WSW 19:08:41 15° SW 19:09:05 14° SSW visible
